Temp
25 26 24 24 23 21 23 26 28 31 32 31 31 30 29 29 30 27 27 27 27 27 26 25 24 24 24 23 22 21 20 20 19 18 18 18 18 18 17 17 17 17 17 17 17 18 18 18 18
26 24 24 23 22 22 23 27 30 31 31 31 31 27 29 28 28 26 26 28 29 27 26 25 25 24 23 23 22 21 20 19 19 18 18 18 17 17 17 17 17 17 17 17 17 18 18 18 18
25 25 22 22 22 22 24 28 31 31 31 31 32 30 28 28 27 26 29 28 28 27 26 25 25 24 23 22 21 20 20 19 19 18 18 17 17 17 17 17 17 17 17 17 17 17 18 18 18
25 24 22 23 23 25 28 29 31 32 32 31 31 29 29 29 28 29 28 27 27 27 26 25 24 24 23 22 21 20 20 19 18 18 18 17 17 17 17 17 17 17 17 17 17 17 17 18 18
25 21 22 22 24 26 29 30 31 32 32 31 31 28 28 29 30 29 27 27 27 26 25 24 24 23 23 22 21 20 19 18 18 18 17 17 17 17 17 17 17 17 17 17 17 17 17 17 17
22 21 22 22 25 28 29 30 31 32 32 31 27 27 27 29 29 28 27 26 26 26 25 24 24 24 23 23 22 21 20 19 18 18 17 17 17 17 16 16 16 16 17 17 17 17 17 17 17
22 21 21 24 26 27 30 30 31 30 32 31 27 26 26 26 29 29 28 27 26 25 25 24 24 24 23 23 22 21 20 19 19 18 17 17 16 15 15 15 16 16 16 16 17 17 17 17 17
22 22 23 23 25 26 29 30 30 31 31 31 30 25 25 25 29 29 27 26 26 26 26 25 24 24 23 22 21 20 19 19 18 17 17 16 16 16 15 15 15 15 16 16 16 16 16 16 16
25 22 22 23 26 27 29 29 30 32 32 32 31 27 28 29 28 27 26 26 25 25 26 25 24 23 22 21 20 19 18 18 17 17 16 16 15 15 15 15 15 15 15 16 16 16 16 16 16
23 21 24 26 26 26 28 28 29 30 29 30 30 27 27 28 26 24 25 25 26 25 24 24 23 22 21 20 19 19 18 17 17 17 16 16 16 15 15 15 15 16 16 16 16 16 16 16 16
24 25 26 27 28 28 28 29 30 30 29 29 29 27 25 24 24 24 25 26 26 25 24 23 22 21 21 19 19 18 18 17 17 17 17 16 16 15 15 15 16 16 16 16 16 16 15 16 16
24 26 27 27 29 29 28 30 30 30 29 30 29 27 25 24 23 22 24 25 25 24 24 23 23 22 21 20 19 18 18 17 17 17 16 16 16 16 16 16 15 16 16 16 16 16 16 16 16
24 26 28 28 28 29 29 29 30 29 30 29 29 26 25 24 23 25 26 25 24 23 23 22 21 21 21 20 19 18 18 17 17 17 16 16 16 16 16 15 15 16 16 15 16 16 16 16 16
26 27 27 28 28 29 29 29 28 30 30 29 27 25 25 23 23 23 23 23 23 23 22 22 21 21 20 20 19 19 18 18 17 17 17 16 16 16 15 15 15 15 15 15 15 15 16 16 16
26 26 27 28 28 28 29 28 29 29 29 28 27 26 25 24 23 23 23 23 24 23 22 22 21 21 20 20 20 19 19 18 17 17 17 16 16 16 15 15 15 15 15 15 15 15 15 16 16
25 25 24 27 28 29 27 27 29 28 28 27 27 27 26 23 24 24 23 24 23 23 22 22 21 20 20 20 19 19 19 18 18 17 17 16 16 15 15 16 15 15 15 15 15 15 15 16 16
23 23 24 25 26 28 27 28 29 29 28 27 26 25 26 25 22 22 23 24 23 23 22 21 21 20 20 20 19 19 19 18 18 17 16 16 16 15 15 15 15 15 15 15 15 15 15 16 16
24 23 25 26 28 27 27 27 29 29 28 28 26 25 24 24 22 21 22 22 23 22 22 21 20 20 20 20 20 20 19 18 18 17 17 16 16 16 15 15 15 15 15 14 14 15 15 16 17
24 24 24 27 28 28 27 27 29 28 26 27 26 25 24 22 20 21 21 22 22 22 21 21 20 20 20 20 20 19 19 19 18 17 17 16 16 15 15 15 15 15 15 15 15 15 15 16 17
24 24 24 26 28 27 27 27 29 28 26 26 26 25 23 20 19 19 19 20 22 21 21 21 21 20 20 20 20 19 19 18 17 17 16 16 16 15 15 15 15 16 15 15 15 15 15 16 17
24 24 25 25 27 27 26 26 26 29 28 28 26 25 21 20 20 19 18 19 21 21 21 21 21 21 20 20 20 19 19 18 18 17 17 16 15 16 16 15 16 16 15 16 16 16 16 16 16
24 26 27 26 25 23 26 23 24 28 28 28 26 24 21 21 20 19 18 17 20 21 21 21 21 21 21 20 20 19 19 17 17 17 16 16 16 16 16 16 16 16 16 16 17 17 17 17 17
25 26 26 26 25 24 26 23 24 25 28 28 26 23 20 21 20 19 18 18 21 21 21 21 21 21 20 20 20 19 18 17 17 16 16 16 16 16 16 16 16 16 16 17 17 17 17 18 17
27 26 25 25 24 23 25 24 26 25 27 28 27 23 21 19 18 17 18 20 20 21 21 21 21 21 21 20 20 20 19 17 17 16 16 15 15 16 16 16 16 16 17 17 17 17 17 18 18
25 23 22 19 21 22 24 23 24 25 25 27 26 23 20 19 18 18 18 17 19 20 21 21 21 21 21 20 20 20 19 18 17 16 15 15 15 15 15 16 16 17 17 17 17 17 17 17 17
25 24 23 22 21 23 25 25 26 27 28 27 25 22 19 18 18 18 18 18 19 20 21 21 21 21 21 20 20 20 19 18 17 16 15 15 15 15 15 16 17 17 17 17 17 17 17 17 17
25 25 26 24 23 23 23 25 26 26 25 24 22 21 19 18 18 18 18 18 19 20 21 21 21 21 21 20 20 20 19 18 18 16 16 15 15 15 16 16 16 17 17 17 17 17 17 16 16
26 26 25 21 22 23 23 25 24 27 24 23 22 20 18 18 18 18 18 17 20 21 21 21 21 21 21 21 21 20 20 19 18 17 16 16 15 15 15 16 16 16 16 16 17 17 16 16 15
25 25 24 23 21 21 20 23 22 26 24 23 22 21 19 19 19 19 18 19 20 21 22 22 21 21 21 21 21 21 20 19 18 17 16 16 15 15 15 15 15 16 16 16 17 16 16 16 15
26 26 24 25 23 22 21 23 25 24 23 24 23 22 20 20 19 19 18 18 18 20 21 21 21 21 22 21 21 21 20 19 18 18 17 17 16 15 16 15 16 16 16 17 16 16 16 14 14
Height
799 799 802 804 828 831 832 811 783 777 768 755 748 756 765 763 769 793 762 765 769 770 775 779 782 784 786 788 790 792 793 794 795 797 798 799 799 800 800 800 799 799 799 800 801 801 802 802 802
800 802 803 808 836 844 828 789 782 771 758 749 749 758 762 770 757 761 763 763 767 770 774 778 780 783 785 788 788 790 791 792 792 794 795 796 797 798 798 798 797 797 797 798 799 798 799 800 801
801 802 810 818 830 837 824 784 766 759 752 750 752 747 757 761 754 753 756 761 766 770 774 776 779 783 785 788 789 790 790 790 789 792 792 793 794 795 795 795 795 794 795 796 796 796 797 797 799
801 803 807 823 826 805 792 774 765 757 749 746 748 762 754 752 751 753 757 761 764 768 771 775 778 780 783 785 786 787 788 787 787 789 789 790 791 791 792 791 791 791 792 792 793 793 794 795 797
800 805 825 825 812 791 776 763 758 759 754 751 748 767 763 754 752 754 757 760 762 765 768 773 776 777 779 781 782 783 786 785 785 786 786 787 787 787 788 788 788 788 788 789 789 790 792 793 794
806 810 831 829 805 782 772 758 755 753 752 750 759 762 760 750 751 754 756 757 760 763 767 770 772 774 776 778 779 779 781 781 782 783 783 783 782 783 784 784 783 783 784 785 786 787 788 789 790
808 819 828 814 803 789 768 754 758 755 748 751 747 766 757 752 750 752 754 756 759 761 764 767 769 771 773 774 775 777 778 779 779 780 780 779 778 779 779 779 779 779 780 781 782 783 784 786 787
800 810 815 808 803 797 760 759 754 752 752 735 737 762 762 746 748 753 754 756 758 759 761 764 766 768 770 772 773 774 775 777 776 776 777 776 774 775 774 774 775 775 774 775 777 778 780 782 784
788 817 818 805 795 781 754 762 749 742 744 740 736 739 730 734 745 751 754 757 757 758 760 762 764 766 767 770 770 772 773 774 774 773 774 772 772 772 772 772 772 771 770 770 771 773 776 779 782
795 813 795 769 774 775 762 760 754 752 748 744 738 732 730 735 741 746 748 751 752 755 758 761 763 764 766 767 769 770 771 771 771 770 771 770 770 770 770 769 768 768 767 768 769 771 773 776 778
781 787 770 768 763 760 760 755 747 750 752 740 741 737 733 736 739 742 744 746 746 751 754 759 762 763 763 764 766 768 769 768 768 768 768 768 768 768 767 766 766 766 766 765 766 768 770 772 775
785 767 764 757 754 756 757 746 747 742 739 725 725 727 732 735 736 738 742 744 745 747 751 756 760 760 762 763 764 766 765 765 765 765 765 765 765 765 765 764 765 765 764 764 765 766 767 770 773
774 759 753 750 750 748 744 748 743 736 722 718 722 728 729 730 731 734 736 739 741 745 749 752 755 757 759 760 761 763 762 762 762 762 762 761 761 762 762 762 762 762 762 762 762 763 765 768 770
751 754 752 747 747 744 746 738 738 726 717 719 722 726 724 726 726 730 733 734 737 740 744 747 750 754 755 758 759 760 759 759 759 759 758 758 758 758 759 759 759 759 759 759 760 761 763 766 768
753 761 751 747 744 742 737 743 735 719 715 719 721 718 719 718 721 720 722 726 730 736 742 745 748 749 752 755 756 756 756 756 755 755 754 754 754 755 756 756 756 756 756 757 758 760 762 764 766
761 759 769 745 740 731 743 749 723 711 716 719 717 714 715 716 713 714 718 722 729 734 739 742 745 746 748 752 753 753 753 752 751 751 751 751 751 752 752 752 752 753 753 754 756 757 759 761 764
767 775 766 753 737 734 740 739 714 705 711 713 710 711 710 709 712 713 715 718 724 731 735 739 742 744 746 749 751 751 750 749 748 748 748 748 748 748 749 749 749 749 750 751 753 755 758 760 762
766 770 756 751 728 733 735 734 713 702 705 704 704 705 705 705 705 707 713 720 726 730 733 738 741 742 745 747 748 749 748 747 745 745 745 745 745 745 745 746 747 747 747 748 750 753 756 758 760
750 756 756 734 717 735 735 728 710 701 701 699 701 701 700 701 703 709 715 721 726 728 732 737 740 741 743 745 746 746 746 744 743 742 742 742 742 742 743 743 744 744 745 746 749 752 754 757 760
747 752 751 733 719 734 729 727 705 697 698 695 695 696 697 704 704 708 715 719 722 726 733 737 738 739 742 743 745 745 744 743 740 740 740 739 739 739 740 741 742 742 744 745 747 750 753 757 759
739 746 743 743 723 722 732 731 718 691 688 688 689 689 695 698 702 708 714 717 721 726 731 735 737 738 741 742 743 744 743 742 739 738 738 736 736 737 737 740 741 742 744 745 746 749 752 756 758
742 723 726 732 741 759 722 759 727 698 694 689 687 688 691 692 697 702 711 716 720 725 730 733 736 737 740 742 743 742 742 739 738 737 736 736 736 737 738 739 741 742 743 744 745 748 751 754 757
722 716 724 724 735 744 728 750 725 705 700 691 685 686 689 687 690 700 708 714 720 725 728 732 734 736 739 741 742 741 741 738 737 737 736 736 737 737 739 740 742 743 743 743 745 747 750 752 755
703 720 723 725 736 756 731 743 715 714 697 685 678 685 687 691 697 703 709 714 720 724 728 731 733 736 738 740 741 740 740 737 737 737 736 735 736 737 739 741 743 744 744 745 746 748 750 752 754
709 731 759 776 765 750 726 739 718 692 685 680 680 686 690 693 698 703 709 715 719 723 727 730 733 735 738 739 740 740 739 737 738 737 737 736 736 738 740 742 744 745 746 747 747 748 750 752 754
706 719 740 762 764 743 717 728 703 673 664 666 670 680 689 696 698 704 709 713 717 721 725 729 732 734 736 738 739 739 738 738 738 737 736 737 738 739 741 744 746 746 747 748 748 750 751 753 754
696 709 699 727 727 734 725 703 683 669 674 678 682 685 691 694 698 703 709 712 716 720 724 727 731 733 736 738 738 739 738 738 738 738 737 738 739 741 742 745 747 748 749 749 750 751 753 754 756
679 684 715 731 746 745 730 713 715 685 686 686 689 688 693 697 700 704 707 711 715 719 723 726 729 733 735 737 738 738 738 739 739 739 738 739 740 741 742 745 747 749 750 750 750 753 756 755 758
683 692 695 700 716 736 749 722 685 679 680 683 682 682 688 693 696 701 706 709 713 718 722 725 728 732 735 736 737 738 739 739 740 740 740 740 741 743 743 745 747 750 751 753 754 756 758 759 761
662 672 683 694 711 707 718 708 664 666 670 669 676 679 685 689 695 700 704 708 713 717 721 724 727 731 734 735 737 739 739 741 741 741 740 741 743 744 745 746 748 751 753 755 756 758 761 764 766
Wind_Speed
9 10 7 2 2 3 4 7 5 7 1 4 3 8 7 1 3 3 14 21 30 32 33 30 26 22 20 18 16 16 14 13 11 11 11 11 12 11 10 10 9 8 8 10 12 12 12 11 10
11 10 2 1 2 1 5 7 5 5 5 4 5 7 4 1 1 7 16 24 26 29 30 27 23 21 19 17 16 15 14 13 12 12 12 13 13 14 13 12 11 10 10 11 12 13 13 12 12
10 2 2 3 3 5 5 8 10 4 8 6 3 4 7 6 2 19 12 30 27 26 25 22 21 20 17 15 14 14 14 13 12 13 13 13 13 15 15 15 14 14 14 14 13 13 14 14 14
3 2 3 2 9 9 7 12 9 2 5 4 3 6 3 5 16 14 31 30 26 24 23 22 20 17 16 13 12 13 13 14 14 15 14 14 15 17 18 17 17 17 17 17 17 15 15 16 16
0 2 2 4 7 7 10 8 5 4 3 4 2 2 1 3 12 28 30 28 26 26 23 22 18 18 15 12 10 10 12 14 15 15 14 15 17 18 18 18 18 18 19 19 19 18 18 17 16
2 2 1 5 5 5 6 9 3 2 4 3 6 8 7 12 26 29 27 27 24 25 24 23 20 16 12 9 8 8 10 13 14 14 15 17 19 19 19 19 19 20 20 21 22 21 21 19 17
4 3 5 5 13 10 2 7 5 7 3 5 10 7 3 6 27 27 23 22 23 25 24 23 19 15 11 10 10 10 9 10 10 11 13 14 15 17 19 20 21 22 24 24 25 24 23 21 18
5 4 4 5 4 10 4 4 6 3 8 1 7 7 5 9 26 24 22 25 22 20 20 18 18 14 13 13 11 12 13 11 10 9 11 9 10 10 12 16 18 19 21 23 24 25 23 23 20
5 2 8 7 7 10 17 2 6 5 3 3 5 7 10 29 27 25 24 22 23 23 20 22 19 18 15 13 10 11 12 11 9 8 8 10 11 12 11 11 12 14 18 20 21 21 24 24 20
6 6 12 15 9 10 15 6 8 5 7 5 4 4 15 31 29 23 17 19 24 25 26 22 19 18 16 11 9 11 9 8 11 9 10 11 12 12 11 12 12 13 12 18 20 20 21 21 21
8 16 19 18 16 16 18 17 7 6 6 8 6 6 11 10 15 18 22 29 32 29 25 20 21 17 12 10 7 9 9 9 12 12 13 10 11 13 11 10 12 12 13 13 16 17 20 22 20
6 14 21 23 21 18 19 18 17 8 9 9 7 16 10 10 12 13 19 16 20 27 25 22 18 13 8 4 5 8 10 9 10 13 13 11 13 12 12 10 11 11 11 11 13 17 21 21 20
13 24 20 19 17 20 20 17 17 9 10 9 3 14 17 15 12 23 25 23 29 29 26 23 17 10 4 2 4 5 6 11 14 14 12 12 13 15 12 13 12 11 11 12 12 17 21 21 19
10 16 20 18 20 22 22 22 7 10 9 10 10 16 14 14 16 13 22 29 32 30 27 21 15 8 3 3 4 5 7 10 13 14 14 15 14 16 14 13 12 13 12 11 12 16 20 20 19
14 21 20 19 13 17 16 18 13 11 9 10 12 12 15 18 16 20 32 34 35 29 26 21 13 8 5 1 4 8 11 13 15 15 14 14 13 14 14 12 13 14 11 13 13 16 19 19 20
7 5 9 11 14 21 7 24 16 13 10 12 11 10 11 11 17 23 33 36 33 29 26 19 11 9 5 3 6 11 13 15 16 14 14 14 14 16 14 12 13 13 12 13 16 17 17 18 19
5 13 17 13 11 12 9 22 19 13 13 15 11 10 11 13 5 19 34 37 34 29 24 19 13 10 7 5 7 12 15 16 15 13 13 14 15 13 14 13 12 11 12 14 18 18 17 16 17
12 11 5 17 21 8 14 16 20 20 15 18 11 10 10 8 12 21 29 33 31 27 22 17 15 10 7 5 6 10 8 11 11 10 10 12 12 11 11 13 12 9 10 12 16 17 16 16 16
8 6 9 20 24 5 12 15 23 13 10 13 10 10 10 9 6 18 28 33 27 23 21 18 14 11 7 4 7 7 8 9 9 8 8 8 9 8 10 9 9 9 9 10 13 14 14 15 12
12 14 18 21 23 7 17 18 21 9 7 10 12 11 7 7 10 11 23 28 27 24 20 16 13 11 8 4 5 7 7 7 8 8 8 8 7 8 10 10 9 7 8 10 13 13 10 11 13
16 17 17 18 20 16 10 15 9 5 3 3 7 4 7 16 15 13 14 22 26 24 21 17 14 9 7 3 2 2 4 4 3 5 5 5 3 4 8 9 9 8 8 11 13 13 11 10 11
19 16 19 15 12 8 6 7 5 6 6 5 8 7 10 14 12 15 13 16 26 23 19 17 13 13 8 4 1 2 3 4 4 1 2 4 4 5 5 6 8 7 7 11 13 15 16 13 14
18 18 18 20 14 9 22 4 8 6 6 9 9 5 10 17 19 16 14 20 26 21 19 16 16 10 11 5 3 2 2 3 3 3 3 4 5 5 5 8 7 7 5 12 14 18 18 17 19
23 10 12 12 8 11 15 7 15 5 8 5 2 6 10 9 9 9 17 24 22 21 18 19 15 12 9 8 5 2 3 6 7 4 4 1 5 8 9 8 9 5 5 10 12 15 16 13 16
13 10 4 3 3 11 9 6 10 6 8 8 9 8 8 9 12 14 14 10 19 21 21 17 13 12 9 6 9 2 3 6 7 4 2 2 7 12 13 10 9 6 7 6 9 10 14 11 15
19 14 8 7 6 4 6 5 10 9 5 7 7 10 10 9 11 13 12 13 19 24 22 18 14 12 9 9 9 5 4 7 7 4 3 4 8 11 12 10 9 6 7 6 7 11 10 11 15
14 15 21 4 3 2 4 7 9 7 6 6 10 12 11 11 12 14 11 16 21 25 23 19 16 13 9 12 9 6 6 6 7 7 6 7 10 10 10 9 9 6 8 8 9 11 11 12 14
25 6 7 2 10 6 4 4 5 1 7 6 8 10 8 8 11 12 11 15 24 25 23 18 16 17 13 10 8 7 7 6 7 7 8 10 9 8 10 10 9 10 10 12 12 15 15 15 19
10 10 6 5 6 8 3 7 8 13 11 16 13 13 14 14 14 13 10 19 26 25 21 16 16 15 16 10 8 7 8 6 6 7 8 9 8 8 10 10 11 13 14 18 18 18 17 16 19
15 15 10 9 5 2 6 9 4 11 15 17 12 12 12 12 13 12 11 16 21 24 20 17 18 17 15 11 8 7 8 9 10 8 9 9 8 11 10 12 13 15 20 20 21 18 16 17 16
Wind_Direction
170 148 129 73 34 61 265 259 235 290 287 230 197 120 149 113 177 222 166 170 173 175 180 185 188 192 194 196 199 202 205 208 211 215 220 226 232 238 235 231 231 239 241 245 249 248 246 249 255
163 135 105 53 98 89 260 243 302 239 239 209 124 114 87 222 152 136 152 177 176 176 178 184 190 196 198 204 207 211 214 218 225 227 225 231 234 238 241 240 240 243 246 244 244 248 248 245 248
162 131 78 164 186 207 220 254 233 264 233 208 129 90 148 175 129 159 177 164 166 173 181 186 191 194 201 208 214 221 227 235 239 236 232 238 243 245 243 246 245 245 245 246 245 245 245 246 244
168 55 321 187 237 264 245 267 267 277 350 321 110 77 53 261 161 173 156 161 165 172 182 186 185 187 195 206 221 231 242 242 241 240 238 239 248 251 253 249 247 248 247 248 245 245 244 241 243
292 73 261 262 254 258 284 269 233 348 349 39 87 174 45 246 178 156 162 166 171 174 179 178 177 185 196 214 225 234 242 247 244 244 244 245 249 251 252 252 251 250 249 249 243 240 238 235 234
14 93 305 254 249 264 284 254 229 226 256 159 87 139 190 168 155 160 164 172 177 174 175 177 182 188 195 210 217 229 239 245 250 253 256 255 253 253 253 252 252 251 248 243 241 238 234 232 229
142 102 238 265 285 301 204 320 281 244 221 233 154 139 258 200 168 168 165 165 159 164 173 183 186 190 200 213 218 224 236 242 241 255 271 269 262 259 256 255 254 253 250 246 242 240 234 227 226
157 123 271 245 249 279 272 338 303 345 275 167 168 172 199 217 176 174 165 161 164 181 187 195 195 197 203 208 217 221 222 226 249 272 282 273 278 275 267 259 253 251 250 248 243 241 236 226 223
142 160 254 239 229 253 284 1 293 270 281 267 223 155 215 180 171 160 159 166 176 184 199 197 192 194 193 198 203 218 215 221 248 265 254 273 278 280 268 263 263 264 253 246 244 241 231 222 223
165 189 236 237 255 274 284 268 282 302 318 281 296 355 139 157 163 165 175 188 195 190 196 193 194 190 181 189 202 209 218 244 250 239 267 280 264 270 274 277 275 274 270 250 242 237 222 217 222
203 226 242 266 260 263 269 283 271 276 293 267 252 193 158 156 164 173 189 196 203 195 178 182 172 169 171 174 189 201 237 258 251 256 281 277 268 265 262 271 261 268 268 261 241 221 215 213 219
267 243 243 253 262 267 267 275 268 228 243 251 277 186 165 163 180 184 199 195 186 180 171 169 181 178 186 217 221 237 260 268 252 271 275 260 263 271 262 255 263 262 261 260 235 226 216 212 217
236 242 247 255 263 265 268 259 254 239 259 270 151 169 183 185 189 195 195 188 162 161 167 168 169 176 192 249 228 238 258 271 280 279 265 257 264 260 266 256 254 248 250 253 240 227 217 214 215
241 248 254 259 262 266 265 269 231 248 247 269 169 199 192 185 194 178 177 170 169 164 165 168 172 174 148 196 240 286 286 289 278 277 271 264 270 256 247 254 245 247 251 244 242 228 220 217 223
250 258 264 261 250 259 269 269 248 250 251 247 204 190 197 201 184 187 176 171 173 171 168 170 169 162 162 257 302 298 288 284 283 279 270 263 265 246 246 258 253 249 253 245 237 233 230 229 229
297 272 258 247 260 261 194 269 273 254 229 230 220 218 199 202 201 190 176 176 174 168 168 164 162 169 175 271 285 292 292 276 280 274 267 262 257 250 250 256 254 249 249 241 229 226 227 228 232
229 257 260 279 244 260 208 266 268 271 224 229 225 219 222 217 191 175 182 177 170 166 162 157 161 166 180 230 273 290 288 280 279 270 257 259 257 251 249 251 250 248 248 239 223 222 221 222 227
220 237 223 255 259 254 268 264 270 262 232 223 214 226 228 208 205 176 171 167 161 160 155 157 160 166 173 221 276 288 278 282 278 270 259 254 253 246 241 248 236 246 245 235 215 217 217 225 233
242 236 246 262 268 278 267 270 271 256 238 218 218 233 232 201 147 158 161 163 157 153 152 161 164 158 172 226 297 258 271 297 273 260 258 263 254 246 236 247 229 239 235 221 202 208 213 223 228
229 241 249 272 270 261 274 281 287 252 224 213 213 234 219 138 145 141 157 162 159 158 162 167 167 167 187 227 273 268 298 299 288 267 254 264 268 243 229 235 235 227 218 195 192 198 194 213 218
227 229 243 243 276 279 276 279 265 292 227 239 274 262 147 166 159 159 165 161 160 162 169 170 172 169 170 143 117 217 293 306 330 273 253 245 233 205 205 229 229 206 210 196 190 192 198 191 202
234 226 241 251 255 257 140 281 277 237 259 246 261 214 183 173 164 161 161 159 162 167 170 173 172 166 165 168 137 240 295 311 341 275 293 176 147 168 190 194 187 190 202 200 196 194 196 198 185
228 223 233 244 247 259 280 295 267 271 268 266 287 221 172 177 167 164 163 158 169 168 169 171 163 162 172 203 196 210 339 19 118 116 131 171 178 185 171 179 180 164 152 184 186 183 198 197 184
231 238 238 255 242 253 243 216 268 221 226 252 228 194 179 155 139 126 143 161 165 168 165 161 162 167 181 210 203 118 76 113 123 145 136 194 184 180 164 165 166 158 167 178 181 197 183 182 178
212 202 248 284 198 241 210 184 239 228 231 223 193 198 159 147 142 146 154 152 162 164 161 160 165 176 193 222 159 139 138 116 110 138 122 96 139 152 158 159 154 151 137 161 186 184 182 183 180
221 211 204 185 222 239 203 228 260 226 253 209 155 159 138 140 146 152 156 161 163 164 162 164 175 189 197 189 169 167 149 121 111 118 126 113 141 148 158 165 159 169 160 147 167 177 180 184 191
222 212 224 203 315 137 214 282 320 267 151 136 133 145 149 152 151 150 162 161 161 166 169 171 185 194 190 174 168 183 152 144 139 106 100 119 142 146 162 171 178 172 156 157 151 155 151 171 168
219 142 231 303 204 212 265 247 231 150 149 148 155 154 145 139 143 157 163 161 166 172 173 180 192 191 178 178 188 180 155 148 158 125 122 138 140 154 160 165 174 171 163 155 156 144 144 151 139
199 201 201 175 166 192 212 260 199 203 177 172 173 165 161 163 159 163 162 169 171 171 173 176 191 188 177 188 195 170 152 148 147 143 145 145 138 153 165 167 159 155 155 153 154 143 145 127 121
209 205 180 213 232 167 158 257 245 218 171 165 169 170 169 158 158 161 163 163 163 172 172 169 172 174 172 165 162 152 146 136 139 147 159 153 142 144 149 154 152 150 155 153 150 145 138 128 127